LU8FJH-13 Weather Reports


time (UTC)temp
C
wind
direction
speed
KPH
gust
KPH
rain 1hr
cm
rain 24hr
cm
rain mn
cm
humidity
%
barometer
mb
20260505040959 19 353 3.2 6.4 0.00 0.00 0.00 71 1011.2
20260505040059 19 349 3.2 6.4 0.00 0.00 0.00 70 1011.3
20260505035159 19 342 0.0 8.0 0.00 0.00 0.00 68 1011.0
20260505034259 19 299 3.2 6.4 0.00 0.00 0.00 67 1011.1
20260505033359 19 13 0.0 6.4 0.00 0.00 0.00 65 1010.8
20260505032459 20 21 3.2 9.7 0.00 0.00 0.00 65 1010.8
20260505031559 20 289 3.2 12.9 0.00 0.00 0.00 62 1010.7
20260505030659 20 291 3.2 12.9 0.00 0.00 0.00 61 1010.8
20260505025759 20 270 0.0 11.3 0.00 0.00 0.00 62 1010.7
20260505024859 20 267 0.0 6.4 0.00 0.00 0.00 61 1010.8
20260505023959 20 326 1.6 8.0 0.00 0.00 0.00 61 1010.7
20260505023059 20 20 3.2 8.0 0.00 0.00 0.00 62 1010.6
20260505022159 19 58 1.6 8.0 0.00 0.00 0.00 61 1010.5
20260505021259 19 58 3.2 8.0 0.00 0.00 0.00 61 1010.5
20260505020359 19 110 0.0 6.4 0.00 0.00 0.00 59 1010.4
20260505015459 19 7 0.0 6.4 0.00 0.00 0.00 59 1010.3
20260505014559 18 19 3.2 4.8 0.00 0.00 0.00 62 1010.5
20260505013659 18 116 1.6 8.0 0.00 0.00 0.00 63 1010.5
20260505012759 18 264 0.0 4.8 0.00 0.00 0.00 62 1010.3
20260505011859 18 270 1.6 6.4 0.00 0.00 0.00 61 1010.2
20260505010959 19 270 0.0 4.8 0.00 0.00 0.00 61 1010.4
20260505010059 19 270 3.2 4.8 0.00 0.00 0.00 61 1010.3
20260505005159 19 270 1.6 3.2 0.00 0.00 0.00 61 1010.5
20260505004259 19 270 0.0 3.2 0.00 0.00 0.00 61 1010.3
20260505003359 19 270 1.6 4.8 0.00 0.00 0.00 62 1010.2
20260505002459 19 270 0.0 6.4 0.00 0.00 0.00 62 1010.2
20260505001559 18 270 0.0 3.2 0.00 0.00 0.00 63 1010.1
20260505000659 18 270 0.0 3.2 0.00 0.00 0.00 63 1010.4
20260504235759 18 270 1.6 4.8 0.00 0.00 0.00 62 1010.2
20260504234859 18 270 0.0 3.2 0.00 0.00 0.00 62 1010.1
20260504233959 18 270 0.0 4.8 0.00 0.00 0.00 62 1009.9
20260504233059 19 270 0.0 4.8 0.00 0.00 0.00 61 1009.9
20260504232159 19 270 0.0 3.2 0.00 0.00 0.00 61 1009.7
20260504231259 19 270 1.6 3.2 0.00 0.00 0.00 59 1009.6
20260504230359 19 270 0.0 3.2 0.00 0.00 0.00 58 1009.5
20260504225459 19 270 0.0 4.8 0.00 0.00 0.00 57 1009.5
20260504224559 19 270 0.0 3.2 0.00 0.00 0.00 57 1009.4
20260504223659 19 270 0.0 3.2 0.00 0.00 0.00 56 1009.4
20260504222759 19 270 0.0 3.2 0.00 0.00 0.00 56 1009.1
20260504221859 19 270 0.0 1.6 0.00 0.00 0.00 55 1009.1
20260504220959 19 0 0.0 0.0 0.00 0.00 0.00 54 1008.9
20260504220059 20 270 0.0 3.2 0.00 0.00 0.00 53 1008.9
20260504215159 20 270 0.0 3.2 0.00 0.00 0.00 52 1008.8
20260504214259 20 270 0.0 3.2 0.00 0.00 0.00 52 1008.7
20260504213359 20 0 0.0 0.0 0.00 0.00 0.00 52 1008.7
20260504212459 20 270 0.0 3.2 0.00 0.00 0.00 51 1008.8
20260504211558 21 270 0.0 3.2 0.00 0.00 0.00 49 1009.0
20260504210659 21 270 0.0 3.2 0.00 0.00 0.00 49 1009.0
20260504205759 21 270 0.0 3.2 0.00 0.00 0.00 49 1009.0
20260504204859 21 270 3.2 3.2 0.00 0.00 0.00 49 1009.0
20260504204002 22 270 0.0 3.2 0.00 0.00 0.00 47 1008.9
20260504203059 22 270 1.6 11.3 0.00 0.00 0.00 46 1008.8
20260504202159 22 270 3.2 11.3 0.00 0.00 0.00 44 1008.8
20260504201259 22 270 0.0 6.4 0.00 0.00 0.00 43 1008.6
20260504200359 22 270 3.2 6.4 0.00 0.00 0.00 42 1008.9
20260504195458 23 291 4.8 6.4 0.00 0.00 0.00 39 1008.7
20260504194559 25 295 3.2 6.4 0.00 0.00 0.00 35 1009.0
20260504193659 26 270 1.6 6.4 0.00 0.00 0.00 33 1008.8
20260504192758 26 270 1.6 4.8 0.00 0.00 0.00 32 1009.0
20260504191859 26 74 3.2 4.8 0.00 0.00 0.00 31 1009.1
20260504190959 25 21 1.6 6.4 0.00 0.00 0.00 33 1009.3
20260504190058 26 323 3.2 6.4 0.00 0.00 0.00 32 1009.2
20260504185158 26 149 1.6 6.4 0.00 0.00 0.00 32 1009.3
20260504184258 25 314 0.0 9.7 0.00 0.00 0.00 32 1009.2
20260504183358 26 295 3.2 8.0 0.00 0.00 0.00 30 1009.2
20260504182459 26 272 3.2 6.4 0.00 0.00 0.00 30 1009.5
20260504181558 25 272 1.6 6.4 0.00 0.00 0.00 33 1009.5
20260504180658 26 305 0.0 8.0 0.00 0.00 0.00 31 1009.7
20260504175758 26 270 3.2 4.8 0.00 0.00 0.00 30 1009.9
20260504174858 26 274 0.0 8.0 0.00 0.00 0.00 30 1010.1
20260504173959 25 331 1.6 4.8 0.00 0.00 0.00 32 1010.0
20260504173058 26 11 1.6 6.4 0.00 0.00 0.00 31 1010.2
20260504172159 26 16 0.0 4.8 0.00 0.00 0.00 33 1010.2
20260504171259 25 16 1.6 8.0 0.00 0.00 0.00 35 1010.5
20260504170359 25 65 6.4 8.0 0.00 0.00 0.00 35 1010.6
20260504150659 23 13 3.2 4.8 0.00 0.00 0.00 42 1012.7
20260504141258 18 279 3.2 9.7 0.00 0.00 0.00 53 1012.7
20260504140358 18 280 3.2 9.7 0.00 0.00 0.00 54 1012.8
20260504110358 10 46 0.0 1.6 0.00 0.00 0.00 79 1013.0
20260504081258 11 242 0.0 4.8 0.00 0.00 0.00 69 1012.1
20260504080358 11 290 3.2 6.4 0.00 0.00 0.00 68 1012.0
20260504050358 12 342 0.0 6.4 0.00 0.00 0.00 58 1013.7